This is the latest recevied weather packets stored in our database for station/object G4ZMG. If no packets are shown the sender has not sent any weather packets the latest 10 day(s).
| Time | Temp. | Humidity | Pressure | Rain* | Wind** | Luminosity | Snow |
|---|---|---|---|---|---|---|---|
| 1777827042 | 16.67° C | 72% | 1007.7 hPa | 0 mm | - | 394 W/m² | - |
| 1777825242 | 16.11° C | 73% | 1007.7 hPa | 0 mm | - | 199 W/m² | - |
| 1777821622 | 16.67° C | 74% | 1007.8 hPa | 0 mm | - | 206 W/m² | - |
| 1777818624 | 16.11° C | 75% | 1007.8 hPa | 0 mm | - | 244 W/m² | - |
| 1777818009 | 16.67° C | 74% | 1007.9 hPa | 0 mm | - | 322 W/m² | - |
| 1777817403 | 16.11° C | 74% | 1008 hPa | 0 mm | - | 348 W/m² | - |
| 1777815641 | 16.11° C | 76% | 1008 hPa | 0 mm | - | 376 W/m² | - |
| 1777811438 | 15.56° C | 75% | 1008.3 hPa | 0 mm | - | 304 W/m² | - |
| 1777810820 | 15.56° C | 75% | 1008.3 hPa | 0 mm | - | 169 W/m² | - |
| 1777809612 | 15.56° C | 73% | 1008.2 hPa | 0 mm | - | 186 W/m² | - |
| 1777809045 | 15.56° C | 75% | 1008.1 hPa | 0 mm | - | 330 W/m² | - |
| 1777807246 | 15° C | 76% | 1008.2 hPa | 0 mm | - | 323 W/m² | - |
| 1777806622 | 15.56° C | 77% | 1008.2 hPa | 0 mm | - | 267 W/m² | - |
| 1777803006 | 15° C | 78% | 1008.2 hPa | 0 mm | - | 185 W/m² | - |
| 1777802439 | 16.11° C | 77% | 1008.1 hPa | 0 mm | - | 378 W/m² | - |
| 1777801825 | 15.56° C | 80% | 1008.1 hPa | 0 mm | - | 798 W/m² | - |
| 1777800636 | 15° C | 81% | 1008.2 hPa | 0 mm | - | 297 W/m² | - |
| 1777800023 | 15° C | 81% | 1008.1 hPa | 0 mm | - | 376 W/m² | - |
| 1777799404 | 14.44° C | 84% | 1008.1 hPa | 0 mm | - | 729 W/m² | - |
| 1777798830 | 13.89° C | 85% | 1008.2 hPa | 0 mm | - | 225 W/m² | - |
| 1777798211 | 13.33° C | 87% | 1008.4 hPa | 0 mm | - | 487 W/m² | - |
| 1777797605 | 13.33° C | 87% | 1008.3 hPa | 0 mm | - | 246 W/m² | - |
| 1777797039 | 13.33° C | 89% | 1008.1 hPa | 0 mm | - | 464 W/m² | - |
| 1777796429 | 12.78° C | 90% | 1008.1 hPa | 0 mm | - | 424 W/m² | - |
| 1777795807 | 12.22° C | 91% | 1008.1 hPa | 0 mm | - | 424 W/m² | - |
* Rain latest hour (hover to see other rain measurements)
** Current wind speed in m/s (hover to see current wind gust speed)